sat.trackr.live / text

‹ back to catalog

STARLINK-37275

NORAD 68725 · 2026-081AC

PAYLOAD ACTIVE UNKNOWN

§ Identity

Operator
Country
US
Launch date
2026-04-14
Launch site
AFETR
Launch vehicle
Mass (kg)
RCS (m²)

Purposes: comms

External: N2YO · Heavens-Above · Gunter

§ Orbital elements

Epoch: 2026-09-20T02:48:58.009248Z

Period
93.85 min
Inclination
53.1597°
Eccentricity
0.0001151
Mean motion
15.34398121 rev/d
Perigee alt
461.9 km
Apogee alt
463.5 km
Semi-major
6,840.8 km
B*
4.0932e-4
RAAN
207.2389°
Arg perigee
104.3924°
Mean anomaly
255.7206°
Rev number
2,456

§ Raw data

STARLINK-372751 68725U 26081AC  26263.11733807  .00013477  00000+0  40932-3 0  99962 68725  53.1597 207.2389 0001151 104.3924 255.7206 15.34398121 24563

JSON: /api/v1/satellites/68725 · /tle

For live sub-satellite position, see the globe view (requires WebGL).

§ Visibility from observer

Set your observer location to see the next 7 days of passes ≥ 10°. The values pass through the URL so the page stays shareable.

No JS? Fill the form by hand. The geolocation button needs JavaScript.